Rio Linda — WDD8906 — position and weather

sailwx.info

Track history (hours):
 
Tides and Currents Weather Stations Pressure Air Temp Water Temp Dewpoint Dewpoint Depression Visibility Wind Speed Wind Dir Waves Ship Positions

Rio Linda

More information available from US FCC via Universal Licensing System and Coast Guard Vessel Documentation Center.

Last reported at 2014-Aug-16 19:26 UTC. Time now 2014-Aug-28 07:28 UTC.
Position N 47°40' W 122°23'.
Warning: this ship's position is 11 days out of date.

Length 17 m; draft 2 m.

Type: Pleasure craft. MMSI: 367304420.

Date/timePositionNaut miles runAvg speedWind from/ knotsBaromVisibWave heightAir tempDewpointWater temp
2014-Aug-16 19:26N 47°40' W 122°23'1 0.8
2014-Aug-16 18:47N 47°40' W 122°24'0 1.3
2014-Aug-16 18:33N 47°40' W 122°24'0 0.0
2014-Aug-16 18:32N 47°40' W 122°24'3 3.0
2014-Aug-16 17:33N 47°43' W 122°26'1 7.3
2014-Aug-16 17:27N 47°44' W 122°26'7 7.3
2014-Aug-16 16:33N 47°50' W 122°29'1 8.0
2014-Aug-16 16:26N 47°51' W 122°29'7 7.8
2014-Aug-16 15:33N 47°57' W 122°33'  
2014-Aug-12 21:33N 48°32' W 122°49'6 2.0
2014-Aug-12 18:28N 48°29' W 122°41'6 0.4
2014-Aug-12 02:04N 48°26' W 122°49'26 4.4
2014-Aug-11 20:09N 48°01' W 122°37'4 7.1
2014-Aug-11 19:38N 47°58' W 122°34'1 7.3
2014-Aug-11 19:31N 47°57' W 122°34'0 6.6
2014-Aug-11 19:28N 47°57' W 122°33'7 7.9
2014-Aug-11 18:33N 47°50' W 122°29'0 5.5
2014-Aug-11 18:33N 47°50' W 122°29'7 7.2
2014-Aug-11 17:33N 47°43' W 122°31'0 5.3
2014-Aug-11 17:32N 47°43' W 122°31'1 0.0
2014-Aug-11 03:32N 47°43' W 122°32'4 5.7
2014-Aug-11 02:55N 47°43' W 122°26'  
Track history (hours):
 
Tides and Currents Weather Stations Pressure Air Temp Water Temp Dewpoint Dewpoint Depression Visibility Wind Speed Wind Dir Waves Ship Positions

Rio Linda

More information available from US FCC via Universal Licensing System and Coast Guard Vessel Documentation Center.

Last reported at 2014-Aug-16 19:26 UTC. Time now 2014-Aug-28 07:28 UTC.
Position N 47°40' W 122°23'.
Warning: this ship's position is 11 days out of date.

Length 17 m; draft 2 m.

Type: Pleasure craft. MMSI: 367304420.

Date/timePositionNaut miles runAvg speedWind from/ knotsBaromVisibWave heightAir tempDewpointWater temp
2014-Aug-16 19:26N 47°40' W 122°23'1 0.8
2014-Aug-16 18:47N 47°40' W 122°24'0 1.3
2014-Aug-16 18:33N 47°40' W 122°24'0 0.0
2014-Aug-16 18:32N 47°40' W 122°24'3 3.0
2014-Aug-16 17:33N 47°43' W 122°26'1 7.3
2014-Aug-16 17:27N 47°44' W 122°26'7 7.3
2014-Aug-16 16:33N 47°50' W 122°29'1 8.0
2014-Aug-16 16:26N 47°51' W 122°29'7 7.8
2014-Aug-16 15:33N 47°57' W 122°33'  
2014-Aug-12 21:33N 48°32' W 122°49'6 2.0
2014-Aug-12 18:28N 48°29' W 122°41'6 0.4
2014-Aug-12 02:04N 48°26' W 122°49'26 4.4
2014-Aug-11 20:09N 48°01' W 122°37'4 7.1
2014-Aug-11 19:38N 47°58' W 122°34'1 7.3
2014-Aug-11 19:31N 47°57' W 122°34'0 6.6
2014-Aug-11 19:28N 47°57' W 122°33'7 7.9
2014-Aug-11 18:33N 47°50' W 122°29'0 5.5
2014-Aug-11 18:33N 47°50' W 122°29'7 7.2
2014-Aug-11 17:33N 47°43' W 122°31'0 5.3
2014-Aug-11 17:32N 47°43' W 122°31'1 0.0
2014-Aug-11 03:32N 47°43' W 122°32'4 5.7
2014-Aug-11 02:55N 47°43' W 122°26'  

Dump ship's entire track history